Location: Unspecified
(0.0000°N, 0.0000°E)
Time: 19:06:02
(UTC+00:00)

Vanguard 1 Rocket - Pass Details

Date: 21 November 2019
Orbit: 650 x 4226 km, 34.3° (Epoch: 09 December)

Event Time Altitude Azimuth Distance (km) Brightness Sun altitude
Rises 19:16:35 0° 225° (SW) 8,407 13.5 -21.2°
Reaches altitude 10° 19:24:07 10° 216° (SW) 7,118 12.7 -23.0°
Maximum altitude 19:43:01 33° 159° (SSE) 4,094 10.6 -27.4°
Enters shadow 19:50:23 22° 117° (ESE) 3,953 10.2 -29.1°
Drops below altitude 10° 19:54:25 10° 99° (E) 4,392 - -30.0°
Sets 19:57:37 0° 89° (E) 4,969 - -30.7°
